#timestamp,LO_Frequency,Hit,StdDev 
1542672015.5,286046999.5,N
1542672035.4,286046999.2,N
1542672055.2,286046999.1,N
1542672075.0,286047001.1,N
1542672075.9,286047001.1,N
1542672095.8,286047000.9,N
1542672115.6,286047001.2,N
1542672135.4,286046998.7,N
1542672155.3,286046996.9,N
1542672175.1,286046999.5,N
1542672195.9,286046999.5,N
1542672215.7,286046996.7,N
1542672235.5,286046997.7,N
1542672255.4,286046997.8,N
1542672275.2,286046995.0,Y
1542672295.0,286046997.6,P
1542672296.0,286046997.6,P
1542672315.8,286046997.3,P
1542672335.6,286046997.5,Y
1542672355.5,286046998.9,P
1542672375.3,286046999.0,N
1542672395.1,286046996.6,P
1542672415.9,286046996.9,Y
1542672435.7,286047000.9,P
1542672455.6,286046998.9,N
1542672475.4,286046997.1,N
1542672495.2,286046997.5,N
1542672545.1,286046995.8,E
1542672555.0,286046997.2,N
1542672555.9,286046997.2,P
1542672575.8,286046999.9,P
1542672595.6,286047000.1,N
1542672615.4,286047002.8,N
1542672635.3,286046998.5,N
1542672655.1,286047000.4,N
1542672675.9,286047000.3,N
1542672695.7,286047002.2,N
1542672715.5,286047001.7,N
1542672735.4,286047002.1,N
1542672755.2,286047001.6,N
1542672775.0,286047002.8,N
1542672775.9,286047002.8,N
1542672795.8,286047002.7,N
1542672815.6,286046999.8,N
1542672835.5,286047000.4,N
1542672855.3,286047001.2,N
1542672875.1,286046999.5,N
1542672895.9,286046997.5,N
1542672915.7,286046995.7,N
1542672935.5,286046995.6,N
1542672955.4,286046995.4,N
1542672975.2,286046995.3,N
1542672995.1,286046998.0,N
1542672996.0,286046998.0,N
1542673015.8,286046996.8,N
1542673035.6,286046999.0,N
1542673055.5,286046996.8,N
1542673075.3,286046997.8,N
1542673095.2,286046997.3,N
1542673115.9,286046995.5,N
1542673135.7,286046999.4,N
1542673155.6,286046999.6,N
1542673175.4,286046999.1,N
1542673195.2,286046999.5,N
1542673215.1,286046998.3,N
1542673216.0,286046998.3,N
1542673235.8,286047000.0,N
1542673255.7,286046999.9,N
1542673275.5,286046998.2,N
1542673295.3,286046998.9,N
1542673315.2,286046999.3,N
1542673335.0,286046997.3,N
1542673335.9,286046997.3,N
1542673355.8,286046996.9,N
1542673375.6,286046995.4,N
1542673395.4,286046995.9,N
1542673415.3,286046997.4,N
1542673435.1,286046996.8,N
1542673455.9,286046997.6,N
1542673475.7,286046996.9,N
1542673495.5,286046996.8,N
1542673515.4,286046998.8,N
1542673535.2,286046998.8,N
1542673555.0,286046998.6,N
1542673555.9,286046998.6,N
1542673575.8,286046998.8,N
1542673595.6,286046998.8,N
1542673615.5,286046996.6,N
1542673635.3,286046999.1,N
1542673655.1,286046997.0,N
1542673675.9,286046998.9,N
1542673695.7,286046998.4,N
1542673715.5,286046999.0,N
1542673735.4,286046999.1,N
1542673755.2,286046997.0,N
1542673775.1,286046996.6,N
1542673776.0,286046996.6,N
1542673795.8,286046999.2,N
1542673815.6,286046995.0,Y
1542673835.5,286046999.4,P
1542673855.3,286046999.0,N
1542673875.1,286047000.3,N
1542673895.9,286047001.5,N
1542673915.7,286047004.4,Y
1542673935.6,286047003.8,P
1542673955.4,286047003.3,N
1542673975.2,286047003.3,N
1542673995.1,286047003.7,N
1542673996.0,286047003.7,N
1542674015.8,286047003.8,N
1542674035.7,286047003.7,N
1542674055.5,286047003.4,N
1542674075.3,286047011.9,Y
1542674095.2,286047002.4,P
1542674115.0,286047002.8,P
1542674115.9,286047011.9,P
1542674135.8,286047000.0,N
1542674155.6,286047002.3,N
1542674175.4,286047002.1,N
1542674195.3,286047002.8,N
1542674215.1,286046999.7,N
1542674235.8,286047002.5,N
1542674255.7,286047001.6,N
1542674275.5,286047001.3,N
1542674295.4,286047002.5,N
1542674315.2,286047002.0,N
1542674335.0,286047001.6,N
1542674335.9,286047001.6,N
1542674355.8,286047002.0,N
1542674375.6,286047001.5,N
1542674395.4,286047001.4,N
1542674415.3,286047003.0,N
1542674435.1,286047002.9,N
1542674455.9,286047004.5,N
1542674475.7,286047007.6,Y
1542674495.5,286047003.3,P
1542674515.4,286047002.9,P
1542674535.2,286047005.0,P
1542674555.1,286047005.3,Y
1542674556.0,286047005.3,P
1542674575.8,286047002.0,N
1542674595.6,286047001.4,N
1542674615.5,286047004.4,N
1542674635.3,286047004.2,N
1542674655.1,286047001.5,N
1542674675.9,286047004.4,Y
1542674695.7,286046998.6,P
1542674715.6,286046999.3,N
1542674735.4,286046996.8,N
1542674755.2,286046999.4,N
1542674775.1,286046998.9,N
1542674776.0,286046998.9,N
1542674795.8,286046998.1,N
1542674815.7,286047000.1,N
1542674835.5,286047002.4,N
1542674855.3,286047002.2,N
1542674875.2,286047000.2,N
1542674895.9,286046998.6,N
1542674915.7,286046999.3,N
1542674935.6,286046999.6,N
1542674955.4,286046998.7,N
1542674975.3,286047000.7,N
1542674995.1,286047001.7,N
1542674996.0,286047001.7,N
1542675015.8,286047001.7,N
1542675035.7,286047003.0,N
1542675055.5,286047001.7,N
1542675075.3,286047003.3,N
1542675095.2,286047004.2,N
1542675115.0,286047004.1,N
1542675115.9,286047004.1,N
1542675135.8,286047003.8,N
1542675155.6,286047004.1,N
1542675175.4,286047003.3,N
1542675195.3,286047005.5,N
1542675215.1,286047004.5,N
1542675235.8,286047006.5,N
1542675255.7,286047010.8,Y
1542675275.5,286047009.2,P
1542675295.4,286047006.7,N
1542675315.2,286047006.5,N
1542675335.0,286047006.5,N
1542675335.9,286047006.5,N
1542675355.8,286047008.5,Y
1542675375.6,286047003.3,P
1542675395.5,286047006.0,P
1542675415.3,286047005.0,P
1542675435.1,286047005.3,Y
1542675455.9,286047000.7,P
1542675475.7,286047000.9,N
1542675495.5,286047002.2,N
1542675515.4,286047002.6,N
1542675535.2,286047002.0,N
1542675555.1,286046999.9,N
1542675556.0,286046999.9,N
1542675575.8,286046998.8,N
1542675595.6,286047000.0,N
